RH
37 50 60 68 68 89 91 85 77 65 74 71 69 71 55 44 57 53 70 74 71 58 65 67 75 82 83 86 85 77 76 40 34
14 32 43 50 69 77 84 85 79 76 75 76 73 79 62 54 47 46 59 75 77 71 61 60 66 75 84 87 87 84 76 51 47
26 67 51 48 61 87 80 79 92 81 76 71 72 76 72 60 54 49 48 70 80 79 74 66 63 66 78 82 88 88 84 57 56
23 46 92 85 80 91 86 79 83 80 78 72 74 79 79 68 59 52 61 68 81 86 84 80 72 63 69 81 87 90 90 67 61
26 27 30 32 62 99 97 94 89 89 85 77 68 74 82 77 62 54 66 76 88 85 85 89 81 72 72 77 86 92 92 81 70
41 42 41 43 52 56 88 84 92 91 90 90 80 70 80 85 72 67 62 79 87 89 87 89 85 84 79 86 84 89 97 92 83
46 49 49 54 50 47 45 59 88 96 97 97 93 80 71 74 82 81 73 70 80 86 86 86 86 86 84 86 87 85 95 100 96
60 62 61 56 56 59 66 82 82 94 99 98 99 96 90 80 78 78 80 78 77 76 81 83 84 84 92 92 92 91 90 93 100
65 66 66 73 76 79 82 85 86 82 85 92 94 92 89 88 83 81 80 78 82 80 78 80 86 84 91 99 97 98 100 94 98
67 68 68 67 69 71 71 73 79 81 80 90 85 94 95 93 86 81 76 76 80 88 82 82 82 83 83 78 81 76 83 89 100
61 64 65 63 63 64 65 65 65 65 70 78 82 87 94 98 100 98 96 82 82 87 86 84 83 86 85 77 65 71 68 77 96
41 44 38 30 29 29 30 32 40 53 61 64 69 71 72 76 85 88 95 100 96 95 99 95 92 89 93 96 85 70 57 65 71
31 30 28 28 28 27 26 24 23 24 26 36 52 60 65 68 71 79 96 100 99 99 99 99 100 99 98 92 82 80 74 62 62
30 30 30 29 29 28 26 25 24 24 24 27 34 40 46 57 78 92 97 100 98 98 98 98 99 98 90 97 98 79 91 72 63
30 30 30 30 30 29 29 27 26 26 29 38 44 48 53 61 65 88 99 98 98 97 98 99 98 100 100 97 96 96 92 83 67
30 31 32 33 34 33 33 32 30 29 29 29 43 61 73 76 73 80 84 86 85 92 94 94 93 98 98 100 100 100 97 89 71
30 31 33 35 36 37 36 36 35 33 32 31 33 57 67 77 80 77 83 84 81 82 78 81 84 91 93 98 98 99 99 99 99
31 32 34 37 38 39 40 40 40 38 37 35 31 35 49 43 47 56 60 77 85 80 80 79 85 89 92 97 94 92 94 100 99
32 33 35 37 39 40 41 42 43 43 42 41 38 34 34 38 54 45 43 48 49 53 56 61 72 80 85 96 100 100 100 99 98
33 34 36 38 39 40 42 43 44 45 46 45 43 40 37 36 37 45 47 40 40 39 40 45 50 63 72 79 83 93 100 100 100
Wind_Speed
14 14 13 13 11 8 6 7 6 5 5 6 5 6 6 6 7 5 5 6 6 7 7 8 8 11 12 13 13 13 11 9 9
11 12 13 11 9 9 9 7 7 7 6 6 6 7 6 6 7 7 7 7 8 8 9 9 9 10 12 14 14 14 13 11 9
7 4 8 10 9 8 10 10 7 7 7 7 8 8 7 6 6 8 9 9 10 9 10 12 12 11 13 14 15 16 16 12 11
7 7 5 5 8 7 10 10 11 11 9 8 7 9 9 7 7 7 8 10 11 12 11 12 13 14 13 15 16 18 18 15 13
6 8 10 10 10 7 8 10 11 10 10 9 9 8 9 8 8 8 8 9 11 12 12 12 13 15 14 14 17 19 20 18 16
2 4 5 5 7 9 9 12 9 11 10 9 9 9 8 8 8 9 9 10 11 11 12 12 14 18 20 16 17 18 22 22 19
3 2 2 4 5 6 6 6 9 9 9 9 9 9 9 8 8 9 10 10 11 14 14 12 14 15 16 19 21 20 23 22 25
6 4 2 1 1 1 2 4 5 5 4 7 9 10 10 9 8 8 9 11 12 13 13 13 13 12 13 11 17 25 25 28 18
8 6 6 6 5 4 3 3 2 4 6 6 7 10 9 10 9 10 12 10 10 11 11 10 12 12 10 9 7 9 24 27 21
10 9 8 7 5 3 2 2 1 2 2 5 7 7 7 9 9 10 13 12 11 8 8 7 7 8 8 10 9 24 19 26 13
8 7 7 7 7 6 4 3 1 2 3 3 3 4 5 7 6 6 9 8 9 11 9 8 6 6 7 7 13 15 21 26 15
10 9 8 9 9 9 8 6 4 2 1 3 5 6 5 5 6 7 8 5 5 8 11 13 11 6 2 4 9 15 21 23 24
9 8 7 8 8 8 7 7 6 6 4 1 2 4 6 6 6 5 5 5 4 7 7 10 12 12 13 11 9 10 9 12 20
6 5 5 7 7 6 7 7 7 7 6 6 6 4 2 2 3 4 4 4 4 6 6 10 11 10 10 9 10 12 14 13 14
4 4 4 5 5 5 5 6 7 6 6 7 6 6 6 6 4 3 4 5 6 5 5 5 6 6 11 14 16 15 11 17 15
4 3 2 2 2 3 4 5 5 4 4 4 4 3 3 3 4 4 4 3 4 5 5 5 6 8 8 6 8 11 11 12 20
5 4 2 1 1 3 3 4 3 3 4 3 2 1 3 4 3 4 4 3 3 4 5 7 7 8 7 5 6 3 0 7 16
7 5 4 3 2 3 3 4 5 5 5 4 2 1 1 5 5 6 5 6 6 8 7 6 5 4 5 6 8 8 8 6 6
8 7 6 5 4 4 5 6 7 7 7 6 5 4 5 1 3 5 5 6 6 7 8 9 8 7 6 5 5 5 9 5 5
10 9 9 8 6 6 6 7 8 9 10 9 8 7 7 7 6 6 6 9 8 8 7 7 7 8 9 9 7 8 9 1 6
Wind_Direction
239 246 251 254 247 233 243 243 248 254 274 264 266 277 275 263 265 262 250 231 222 214 217 218 218 214 213 206 206 205 202 196 188
239 240 242 246 244 240 236 241 241 248 255 266 262 261 271 273 269 259 248 235 227 230 230 229 229 223 224 222 213 210 209 204 205
208 197 234 234 237 244 242 235 245 247 251 256 257 260 262 265 266 259 251 237 234 233 240 237 234 230 229 230 224 215 210 215 220
220 199 191 204 225 228 246 239 240 246 251 248 253 259 262 263 263 265 254 241 241 241 248 248 243 234 231 232 232 224 221 228 231
237 229 235 241 220 215 207 230 235 246 249 249 250 257 264 267 266 265 261 250 243 251 255 250 252 240 235 236 235 233 231 234 234
234 234 236 236 244 244 244 230 232 240 250 251 249 250 260 266 268 268 265 257 252 264 259 258 258 255 238 240 236 238 238 236 229
97 172 232 246 258 261 265 244 227 236 241 254 258 256 258 263 273 282 280 271 260 262 270 278 268 264 256 244 238 237 239 225 221
72 73 66 25 290 235 209 219 224 230 235 253 267 272 267 268 275 281 288 283 277 269 271 272 276 272 265 259 256 240 237 249 235
74 79 80 79 87 89 99 124 190 234 240 236 255 266 273 271 273 283 282 290 282 271 280 276 271 274 268 251 281 305 246 241 251
78 80 79 81 88 93 104 125 173 230 267 232 250 255 262 267 253 256 264 270 273 280 263 283 281 283 279 280 250 306 315 330 236
83 78 77 76 78 76 79 82 121 222 227 234 248 261 261 266 265 266 266 268 261 257 270 275 286 299 275 285 322 348 309 308 308
90 87 86 83 75 67 61 62 62 69 244 255 254 258 267 273 271 258 259 264 280 280 255 256 265 265 258 290 299 310 303 310 312
97 90 83 76 68 61 51 52 50 54 57 54 264 256 259 265 265 270 270 264 256 265 272 268 248 240 247 259 266 278 272 270 302
106 95 78 70 61 55 54 48 50 54 51 56 51 38 1 299 298 290 298 293 286 270 255 257 258 252 243 251 268 284 281 263 306
119 101 80 76 69 56 49 39 42 37 46 50 46 43 36 28 15 6 14 8 332 318 304 282 261 262 264 259 260 257 271 260 266
163 149 125 92 75 56 49 41 41 35 30 22 3 20 37 26 25 23 10 340 321 321 316 307 309 297 275 283 274 271 269 288 269
196 197 202 203 44 42 30 20 20 31 35 11 347 261 296 281 289 297 301 312 333 326 297 293 296 282 314 300 285 297 342 68 53
210 215 230 251 305 334 352 353 352 356 0 359 351 316 255 321 311 298 301 289 287 300 303 306 307 295 275 266 268 264 245 288 11
222 228 240 253 279 307 322 334 335 338 336 331 322 298 280 281 293 301 308 310 316 304 294 289 286 288 282 258 229 193 191 69 315
230 234 242 251 262 279 297 310 318 322 326 324 319 308 297 288 275 290 300 307 309 307 306 302 294 283 279 277 266 244 245 273 40